Regional Weather Roundup
Issued by NWS Spokane, WA

Home | Current Version | Previous Version | Text Only | Print | Product List | Glossary On
Versions: 1 2 3 4 5 6 7 8 9 10 11 12 13 14 15 16 17 18 19 20 21 22 23 24 25 26 27 28 29 30 31 32 33 34 35 36 37 38 39 40 41 42 43 44 45 46 47 48 49 50
000
NZUS01 KOTX 241410
RWROTX
EASTERN WASHINGTON/NORTHERN IDAHO ROUNDUP
NATIONAL WEATHER SERVICE, SPOKANE WA
700 AM PDT FRI OCT 24 2014

Note: "fair" indicated few or no clouds below 12,000 feet with no
significant weather and/or obstructions to visibility.

...NORTHEAST WASHINGTON AND NORTHERN IDAHO PANHANDLE...

CITY           SKY/WX    TMP DP  RH WIND       PRES   REMARKS
SPOKANE INTL   CLOUDY    42  40  92 S7        30.06R
SPOKANE DOWNTO CLOUDY    45  41  86 N3        30.07R
COEUR D ALENE  CLOUDY    43  37  81 S6        30.06R
DEER PARK      CLOUDY    41  39  93 CALM      30.07R
SANDPOINT      CLOUDY    43  41  93 SW3       30.07R

...SOUTHEAST WASHINGTON AND SOUTHERN IDAHO PANHANDLE...

CITY           SKY/WX    TMP DP  RH WIND       PRES   REMARKS
WALLA WALLA    CLOUDY    51  45  79 CALM      30.06R
PULLMAN/MOSCOW CLOUDY    43  39  86 CALM      30.09R
LEWISTON       CLOUDY    49  47  93 CALM      30.08R
LOWELL           N/A     49  48  97 CALM      30.12R

...COLUMBIA BASIN...

CITY           SKY/WX    TMP DP  RH WIND       PRES   REMARKS
EPHRATA        CLOUDY    40  38  93 NE5       30.04S
MOSES LAKE     CLOUDY    42  39  89 NE3       30.05S
TRI CITIES     CLOUDY    46  45  96 CALM      30.07R
HERMISTON      CLOUDY    47  45  93 CALM      30.06R
PENDLETON      CLOUDY    47  44  90 SE3       30.05S

...EAST SLOPES CASCADES...

CITY           SKY/WX    TMP DP  RH WIND       PRES   REMARKS
THE DALLES     CLOUDY    46  44  93 CALM      30.08R
YAKIMA         CLOUDY    40  37  89 NW6       30.06S
ELLENSBURG     CLOUDY    40  35  83 CALM      30.04S
WENATCHEE      CLOUDY    46  37  71 W8        30.04S
OMAK           MOCLDY    37  32  82 W6        30.05R

...SOUTHERN BRITISH COLUMBIA...

CITY           SKY/WX    TMP DP  RH WIND       PRES   REMARKS
PENTICTON      MOCLDY    36  30  80 VRB2      30.06R
CASTLEGAR      MOCLDY    39  39 100 SE3       30.07
CRANBROOK      MOCLDY    34  30  86 VRB2      30.00R

...WESTERN MONTANA...

CITY           SKY/WX    TMP DP  RH WIND       PRES   REMARKS
MISSOULA       CLOUDY    43  43 100 CALM      30.11R

...NEIGHBORING CITIES...

CITY           SKY/WX    TMP DP  RH WIND       PRES   REMARKS
SEATTLE        CLOUDY    49  43  80 SE5       30.03S
CALGARY        MOCLDY    37  21  52 SW9       29.83R



USA.gov is the U.S. government's official web portal to all federal, state and local government web resources and services.